TAIP52 YSNW-YSNW

Flight info

Callsign TAIP52
Flight time 1h 16m
Altitude 6000
Route 344636S1501873E 345143S1495664E 344851S1494363E 350904S1495750E 352699S1495103E 353326S1501132E 352008S1502533E DCT 350578S1504225E
Aircraft EC35/L-SDFGRY/C

Departure

Time 2026-04-27 06:47
Airport Naval Air Station Nowra - HMAS Albatross (YSNW)

Arrival

Time 2026-04-27 08:03
Airport Naval Air Station Nowra - HMAS Albatross (YSNW)
Time Latitude Longitude Altitude Speed Heading
2026-04-27 06:43 -34.94889 150.53694 378 ft 0 kts 360°
2026-04-27 06:43 -34.94793 150.52686 382 ft 0 kts 94°
2026-04-27 06:46 -34.94794 150.52687 384 ft 1 kts 93°
2026-04-27 06:46 -34.94795 150.52688 385 ft 0 kts 94°
2026-04-27 06:46 -34.94794 150.52685 387 ft 1 kts 96°
2026-04-27 06:46 -34.94801 150.52762 436 ft 29 kts 96°
2026-04-27 06:47 -34.94842 150.53194 615 ft 66 kts 95°
2026-04-27 06:47 -34.94892 150.53766 865 ft 70 kts 92°
2026-04-27 06:47 -34.94928 150.54370 1140 ft 72 kts 91°
2026-04-27 06:47 -34.94898 150.54956 1443 ft 67 kts 70°
2026-04-27 06:48 -34.94535 150.55262 1736 ft 69 kts 15°
2026-04-27 06:48 -34.94105 150.55027 2030 ft 70 kts 318°
2026-04-27 06:48 -34.93802 150.54600 2423 ft 65 kts 316°
2026-04-27 06:48 -34.93504 150.54208 2853 ft 63 kts 316°
2026-04-27 06:49 -34.93202 150.53832 3197 ft 62 kts 315°
2026-04-27 06:49 -34.92894 150.53475 3570 ft 61 kts 316°
2026-04-27 06:49 -34.92588 150.53127 3930 ft 60 kts 316°
2026-04-27 06:49 -34.92281 150.52788 4244 ft 59 kts 316°
2026-04-27 06:50 -34.91976 150.52453 4587 ft 59 kts 316°
2026-04-27 06:50 -34.91669 150.52129 4657 ft 59 kts 315°
2026-04-27 06:50 -34.91284 150.51709 4582 ft 90 kts 315°
2026-04-27 06:50 -34.90735 150.51106 4541 ft 123 kts 316°
2026-04-27 06:51 -34.90064 150.50376 4552 ft 129 kts 314°
2026-04-27 06:51 -34.89471 150.49568 4549 ft 128 kts 307°
2026-04-27 06:51 -34.88947 150.48685 4543 ft 128 kts 301°
2026-04-27 06:51 -34.88453 150.47786 4538 ft 127 kts 301°
2026-04-27 06:52 -34.87962 150.46887 4532 ft 128 kts 301°
2026-04-27 06:52 -34.87473 150.45993 4540 ft 126 kts 302°
2026-04-27 06:52 -34.87009 150.45092 4542 ft 125 kts 302°
2026-04-27 06:52 -34.86557 150.44172 4536 ft 127 kts 301°
2026-04-27 06:53 -34.86109 150.43255 4542 ft 126 kts 301°
2026-04-27 06:53 -34.85658 150.42330 4539 ft 129 kts 302°
2026-04-27 06:53 -34.85170 150.41409 4540 ft 128 kts 305°
2026-04-27 06:53 -34.84662 150.40531 4536 ft 126 kts 306°
2026-04-27 06:54 -34.84140 150.39663 4542 ft 127 kts 308°
2026-04-27 06:54 -34.83605 150.38825 4541 ft 125 kts 309°
2026-04-27 06:54 -34.83068 150.37987 4537 ft 126 kts 309°
2026-04-27 06:54 -34.82526 150.37139 4534 ft 126 kts 309°
2026-04-27 06:55 -34.81986 150.36292 4534 ft 127 kts 309°
2026-04-27 06:55 -34.81437 150.35431 4531 ft 129 kts 309°
2026-04-27 06:55 -34.80866 150.34609 4541 ft 127 kts 313°
2026-04-27 06:55 -34.80265 150.33824 4536 ft 125 kts 318°
2026-04-27 06:56 -34.79595 150.33158 4533 ft 125 kts 325°
2026-04-27 06:56 -34.78896 150.32518 4539 ft 125 kts 327°
2026-04-27 06:56 -34.78195 150.31897 4536 ft 124 kts 327°
2026-04-27 06:56 -34.77511 150.31261 4532 ft 125 kts 318°
2026-04-27 06:57 -34.77106 150.30331 4538 ft 127 kts 283°
2026-04-27 06:57 -34.77144 150.29256 4545 ft 128 kts 259°
2026-04-27 06:57 -34.77317 150.28207 4540 ft 126 kts 258°
2026-04-27 06:57 -34.77504 150.27170 4527 ft 127 kts 257°
2026-04-27 06:58 -34.77683 150.26104 4527 ft 129 kts 257°
2026-04-27 06:58 -34.78076 150.24032 4527 ft 125 kts 253°
2026-04-27 06:58 -34.78303 150.23004 4525 ft 128 kts 253°
2026-04-27 06:59 -34.78531 150.21945 4535 ft 126 kts 253°
2026-04-27 06:59 -34.78753 150.20907 4533 ft 127 kts 253°
2026-04-27 06:59 -34.78968 150.19883 4536 ft 127 kts 253°
2026-04-27 06:59 -34.79186 150.18845 4535 ft 127 kts 253°
2026-04-27 07:00 -34.79407 150.17820 4536 ft 124 kts 253°
2026-04-27 07:00 -34.79625 150.16793 4533 ft 126 kts 255°
2026-04-27 07:00 -34.79839 150.15742 4538 ft 130 kts 255°
2026-04-27 07:00 -34.80049 150.14687 4535 ft 127 kts 255°
2026-04-27 07:01 -34.80260 150.13634 4536 ft 129 kts 254°
2026-04-27 07:01 -34.80458 150.12586 4538 ft 126 kts 257°
2026-04-27 07:01 -34.80627 150.11546 4544 ft 125 kts 258°
2026-04-27 07:01 -34.80797 150.10516 4532 ft 124 kts 258°
2026-04-27 07:02 -34.80973 150.09477 4527 ft 126 kts 258°
2026-04-27 07:02 -34.81146 150.08424 4528 ft 127 kts 259°
2026-04-27 07:02 -34.81319 150.07376 4536 ft 127 kts 258°
2026-04-27 07:02 -34.81493 150.06320 4539 ft 126 kts 258°
2026-04-27 07:03 -34.81606 150.05629 4526 ft 125 kts 259°
2026-04-27 07:03 -34.81843 150.04231 4529 ft 125 kts 258°
2026-04-27 07:03 -34.81959 150.03542 4533 ft 127 kts 258°
2026-04-27 07:03 -34.82133 150.02478 4538 ft 128 kts 258°
2026-04-27 07:04 -34.82301 150.01406 4536 ft 130 kts 258°
2026-04-27 07:04 -34.82468 150.00334 4535 ft 128 kts 258°
2026-04-27 07:04 -34.82636 149.99275 4533 ft 127 kts 258°
2026-04-27 07:04 -34.82805 149.98215 4530 ft 128 kts 258°
2026-04-27 07:05 -34.82954 149.97146 4534 ft 127 kts 266°
2026-04-27 07:05 -34.82878 149.96080 4535 ft 127 kts 279°
2026-04-27 07:05 -34.82738 149.95014 4534 ft 129 kts 280°
2026-04-27 07:05 -34.82589 149.93942 4533 ft 128 kts 280°
2026-04-27 07:06 -34.82442 149.92882 4462 ft 127 kts 279°
2026-04-27 07:06 -34.82300 149.91829 4265 ft 125 kts 279°
2026-04-27 07:06 -34.82166 149.90779 4064 ft 126 kts 279°
2026-04-27 07:06 -34.82028 149.89724 3867 ft 126 kts 280°
2026-04-27 07:07 -34.81870 149.88676 3666 ft 126 kts 281°
2026-04-27 07:07 -34.81700 149.87634 3475 ft 125 kts 281°
2026-04-27 07:07 -34.81534 149.86599 3276 ft 123 kts 281°
2026-04-27 07:07 -34.81371 149.85585 3077 ft 122 kts 281°
2026-04-27 07:08 -34.81211 149.84602 2893 ft 110 kts 281°
2026-04-27 07:08 -34.81076 149.83702 2821 ft 110 kts 282°
2026-04-27 07:08 -34.80924 149.82768 2863 ft 115 kts 282°
2026-04-27 07:08 -34.80775 149.81826 2872 ft 110 kts 281°
2026-04-27 07:09 -34.80624 149.80908 2872 ft 112 kts 282°
2026-04-27 07:09 -34.80488 149.79998 2876 ft 108 kts 276°
2026-04-27 07:09 -34.80587 149.79096 2877 ft 108 kts 254°
2026-04-27 07:09 -34.80803 149.78225 2884 ft 110 kts 252°
2026-04-27 07:10 -34.81041 149.77267 2905 ft 122 kts 251°
2026-04-27 07:10 -34.81294 149.76228 2777 ft 132 kts 251°
2026-04-27 07:10 -34.81504 149.75209 2645 ft 114 kts 260°
2026-04-27 07:10 -34.81575 149.74346 2594 ft 93 kts 270°
2026-04-27 07:11 -34.81600 149.73605 2513 ft 82 kts 267°
2026-04-27 07:11 -34.81607 149.72969 2479 ft 68 kts 279°
2026-04-27 07:11 -34.81334 149.72661 2378 ft 49 kts 360°
2026-04-27 07:11 -34.81063 149.72768 2337 ft 35 kts 51°
2026-04-27 07:12 -34.81059 149.72982 2253 ft 21 kts 99°
2026-04-27 07:12 -34.81077 149.73142 2141 ft 14 kts 89°
2026-04-27 07:12 -34.81085 149.73184 2126 ft 1 kts 90°
2026-04-27 07:12 -34.81084 149.73187 2118 ft 0 kts 90°
2026-04-27 07:14 -34.81084 149.73188 2124 ft 1 kts 96°
2026-04-27 07:14 -34.81092 149.73187 2127 ft 1 kts 89°
2026-04-27 07:14 -34.81093 149.73186 2127 ft 0 kts 89°
2026-04-27 07:14 -34.81092 149.73186 2126 ft 0 kts 89°
2026-04-27 07:15 -34.81092 149.73185 2124 ft 0 kts 132°
2026-04-27 07:16 -34.81110 149.73205 2141 ft 15 kts 132°
2026-04-27 07:16 -34.81310 149.73432 2268 ft 64 kts 138°
2026-04-27 07:16 -34.81721 149.73714 2471 ft 70 kts 161°
2026-04-27 07:16 -34.82181 149.73925 2635 ft 74 kts 145°
2026-04-27 07:17 -34.82648 149.74215 2806 ft 76 kts 149°
2026-04-27 07:17 -34.83127 149.74512 2966 ft 78 kts 147°
2026-04-27 07:17 -34.83605 149.74827 3125 ft 78 kts 146°
2026-04-27 07:17 -34.84076 149.75167 3307 ft 79 kts 145°
2026-04-27 07:18 -34.84552 149.75506 3465 ft 80 kts 146°
2026-04-27 07:18 -34.85062 149.75869 3499 ft 98 kts 145°
2026-04-27 07:18 -34.85748 149.76349 3503 ft 125 kts 146°
2026-04-27 07:18 -34.86482 149.76872 3499 ft 121 kts 146°
2026-04-27 07:19 -34.87219 149.77393 3498 ft 123 kts 147°
2026-04-27 07:19 -34.87961 149.77902 3495 ft 122 kts 147°
2026-04-27 07:19 -34.88712 149.78412 3497 ft 124 kts 147°
2026-04-27 07:19 -34.89465 149.78913 3494 ft 123 kts 147°
2026-04-27 07:20 -34.90213 149.79409 3499 ft 122 kts 147°
2026-04-27 07:20 -34.90958 149.79911 3497 ft 123 kts 147°
2026-04-27 07:20 -34.91711 149.80406 3502 ft 123 kts 148°
2026-04-27 07:20 -34.92457 149.80906 3496 ft 122 kts 147°
2026-04-27 07:21 -34.93205 149.81410 3499 ft 123 kts 147°
2026-04-27 07:21 -34.93950 149.81915 3497 ft 123 kts 147°
2026-04-27 07:21 -34.94701 149.82422 3501 ft 123 kts 147°
2026-04-27 07:21 -34.95441 149.82925 3499 ft 122 kts 147°
2026-04-27 07:22 -34.96180 149.83419 3504 ft 123 kts 147°
2026-04-27 07:22 -34.96939 149.83925 3501 ft 122 kts 147°
2026-04-27 07:22 -34.97684 149.84426 3509 ft 119 kts 147°
2026-04-27 07:22 -34.98382 149.84902 3496 ft 117 kts 147°
2026-04-27 07:23 -34.99102 149.85388 3503 ft 119 kts 147°
2026-04-27 07:23 -34.99816 149.85885 3502 ft 118 kts 145°
2026-04-27 07:23 -35.00523 149.86390 3501 ft 118 kts 146°
2026-04-27 07:23 -35.01231 149.86907 3498 ft 119 kts 145°
2026-04-27 07:24 -35.01937 149.87416 3502 ft 118 kts 145°
2026-04-27 07:24 -35.02643 149.87922 3502 ft 118 kts 145°
2026-04-27 07:24 -35.03348 149.88428 3502 ft 117 kts 145°
2026-04-27 07:24 -35.04053 149.88936 3495 ft 118 kts 145°
2026-04-27 07:25 -35.04758 149.89441 3503 ft 117 kts 145°
2026-04-27 07:25 -35.05458 149.89933 3506 ft 116 kts 146°
2026-04-27 07:25 -35.06163 149.90437 3503 ft 118 kts 145°
2026-04-27 07:25 -35.06866 149.90940 3505 ft 116 kts 145°
2026-04-27 07:26 -35.07573 149.91438 3502 ft 118 kts 145°
2026-04-27 07:26 -35.08280 149.91937 3504 ft 116 kts 145°
2026-04-27 07:26 -35.08980 149.92425 3500 ft 115 kts 145°
2026-04-27 07:26 -35.09676 149.92902 3502 ft 115 kts 146°
2026-04-27 07:27 -35.10376 149.93395 3505 ft 117 kts 145°
2026-04-27 07:27 -35.11071 149.93880 3506 ft 115 kts 145°
2026-04-27 07:27 -35.11761 149.94362 3508 ft 117 kts 145°
2026-04-27 07:27 -35.12468 149.94853 3504 ft 117 kts 146°
2026-04-27 07:28 -35.13175 149.95348 3510 ft 117 kts 145°
2026-04-27 07:28 -35.13958 149.95636 3507 ft 123 kts 174°
2026-04-27 07:28 -35.14812 149.95493 3508 ft 124 kts 185°
2026-04-27 07:28 -35.15652 149.95280 3509 ft 122 kts 186°
2026-04-27 07:29 -35.16480 149.95058 3518 ft 122 kts 188°
2026-04-27 07:29 -35.17316 149.94834 3657 ft 123 kts 188°
2026-04-27 07:29 -35.18149 149.94612 3805 ft 123 kts 188°
2026-04-27 07:29 -35.18982 149.94382 3954 ft 123 kts 189°
2026-04-27 07:30 -35.19820 149.94116 4103 ft 125 kts 191°
2026-04-27 07:30 -35.20656 149.93839 4251 ft 124 kts 191°
2026-04-27 07:30 -35.21493 149.93565 4401 ft 125 kts 190°
2026-04-27 07:30 -35.22318 149.93283 4554 ft 124 kts 191°
2026-04-27 07:31 -35.23155 149.92999 4707 ft 125 kts 191°
2026-04-27 07:31 -35.24000 149.92708 4852 ft 129 kts 192°
2026-04-27 07:31 -35.24856 149.92421 4897 ft 127 kts 191°
2026-04-27 07:31 -35.25704 149.92153 4800 ft 124 kts 190°
2026-04-27 07:32 -35.26537 149.91904 4691 ft 123 kts 189°
2026-04-27 07:32 -35.27370 149.91651 4589 ft 123 kts 190°
2026-04-27 07:32 -35.28203 149.91399 4492 ft 124 kts 189°
2026-04-27 07:32 -35.29036 149.91139 4433 ft 123 kts 190°
2026-04-27 07:33 -35.29863 149.90875 4443 ft 123 kts 190°
2026-04-27 07:33 -35.30691 149.90603 4448 ft 123 kts 191°
2026-04-27 07:33 -35.31519 149.90333 4455 ft 123 kts 191°
2026-04-27 07:33 -35.32348 149.90062 4456 ft 123 kts 191°
2026-04-27 07:34 -35.33176 149.89788 4456 ft 124 kts 191°
2026-04-27 07:34 -35.34015 149.89515 4458 ft 125 kts 191°
2026-04-27 07:34 -35.34851 149.89242 4456 ft 124 kts 191°
2026-04-27 07:34 -35.35681 149.88959 4458 ft 122 kts 191°
2026-04-27 07:35 -35.36492 149.88677 4455 ft 121 kts 192°
2026-04-27 07:35 -35.37315 149.88399 4454 ft 125 kts 191°
2026-04-27 07:35 -35.38159 149.88101 4460 ft 125 kts 191°
2026-04-27 07:35 -35.38985 149.87806 4457 ft 126 kts 192°
2026-04-27 07:36 -35.39825 149.87512 4464 ft 125 kts 191°
2026-04-27 07:36 -35.40659 149.87214 4463 ft 124 kts 191°
2026-04-27 07:36 -35.41492 149.86922 4462 ft 125 kts 191°
2026-04-27 07:36 -35.42328 149.86626 4463 ft 125 kts 192°
2026-04-27 07:37 -35.43165 149.86340 4458 ft 125 kts 191°
2026-04-27 07:37 -35.43999 149.86041 4461 ft 124 kts 191°
2026-04-27 07:37 -35.44826 149.85737 4457 ft 126 kts 191°
2026-04-27 07:37 -35.45657 149.85426 4459 ft 124 kts 191°
2026-04-27 07:38 -35.46504 149.85368 4463 ft 122 kts 162°
2026-04-27 07:38 -35.47190 149.85877 4462 ft 114 kts 128°
2026-04-27 07:38 -35.47480 149.86757 4460 ft 114 kts 94°
2026-04-27 07:38 -35.47302 149.87699 4466 ft 115 kts 68°
2026-04-27 07:39 -35.46880 149.88532 4462 ft 115 kts 55°
2026-04-27 07:39 -35.46349 149.89293 4458 ft 121 kts 52°
2026-04-27 07:39 -35.45792 149.90067 4465 ft 120 kts 53°
2026-04-27 07:39 -35.45236 149.90825 4463 ft 119 kts 52°
2026-04-27 07:40 -35.44674 149.91584 4461 ft 122 kts 52°
2026-04-27 07:40 -35.44112 149.92360 4464 ft 121 kts 52°
2026-04-27 07:40 -35.43540 149.93117 4463 ft 121 kts 50°
2026-04-27 07:40 -35.42947 149.93848 4463 ft 121 kts 49°
2026-04-27 07:41 -35.42352 149.94587 4465 ft 122 kts 50°
2026-04-27 07:41 -35.41768 149.95332 4462 ft 120 kts 50°
2026-04-27 07:41 -35.41189 149.96071 4463 ft 120 kts 51°
2026-04-27 07:41 -35.40611 149.96807 4461 ft 120 kts 51°
2026-04-27 07:42 -35.40027 149.97551 4461 ft 121 kts 50°
2026-04-27 07:42 -35.39442 149.98288 4460 ft 120 kts 51°
2026-04-27 07:42 -35.38858 149.99025 4456 ft 120 kts 51°
2026-04-27 07:42 -35.38275 149.99764 4461 ft 121 kts 49°
2026-04-27 07:43 -35.37689 150.00501 4463 ft 119 kts 49°
2026-04-27 07:43 -35.37113 150.01224 4458 ft 119 kts 50°
2026-04-27 07:43 -35.36540 150.01945 4459 ft 118 kts 50°
2026-04-27 07:43 -35.35971 150.02662 4460 ft 119 kts 50°
2026-04-27 07:44 -35.35392 150.03388 4464 ft 119 kts 50°
2026-04-27 07:44 -35.34814 150.04113 4463 ft 119 kts 50°
2026-04-27 07:44 -35.34232 150.04845 4462 ft 120 kts 51°
2026-04-27 07:44 -35.33651 150.05569 4466 ft 119 kts 49°
2026-04-27 07:45 -35.33070 150.06292 4458 ft 119 kts 49°
2026-04-27 07:45 -35.32492 150.07013 4459 ft 118 kts 49°
2026-04-27 07:45 -35.31913 150.07739 4456 ft 119 kts 48°
2026-04-27 07:45 -35.31334 150.08466 4463 ft 119 kts 49°
2026-04-27 07:46 -35.30758 150.09186 4460 ft 118 kts 49°
2026-04-27 07:46 -35.30180 150.09911 4461 ft 120 kts 49°
2026-04-27 07:46 -35.29595 150.10645 4443 ft 127 kts 50°
2026-04-27 07:46 -35.28943 150.11495 4453 ft 143 kts 49°
2026-04-27 07:47 -35.28264 150.12343 4470 ft 135 kts 48°
2026-04-27 07:47 -35.27603 150.13163 4457 ft 136 kts 49°
2026-04-27 07:47 -35.26968 150.13944 4453 ft 128 kts 49°
2026-04-27 07:47 -35.26336 150.14733 4454 ft 131 kts 49°
2026-04-27 07:48 -35.25696 150.15537 4455 ft 132 kts 49°
2026-04-27 07:48 -35.25057 150.16341 4457 ft 131 kts 49°
2026-04-27 07:48 -35.24415 150.17145 4456 ft 132 kts 49°
2026-04-27 07:48 -35.23763 150.17961 4453 ft 137 kts 49°
2026-04-27 07:49 -35.23091 150.18798 4457 ft 138 kts 49°
2026-04-27 07:49 -35.22420 150.19634 4454 ft 137 kts 49°
2026-04-27 07:49 -35.21749 150.20468 4458 ft 138 kts 48°
2026-04-27 07:49 -35.21073 150.21298 4317 ft 136 kts 48°
2026-04-27 07:50 -35.20413 150.22098 4089 ft 132 kts 47°
2026-04-27 07:50 -35.19762 150.22892 3865 ft 132 kts 47°
2026-04-27 07:50 -35.19115 150.23683 3625 ft 130 kts 48°
2026-04-27 07:50 -35.18478 150.24456 3279 ft 128 kts 48°
2026-04-27 07:51 -35.17851 150.25221 2927 ft 128 kts 47°
2026-04-27 07:51 -35.17224 150.25988 2577 ft 126 kts 47°
2026-04-27 07:51 -35.16613 150.26752 2469 ft 128 kts 49°
2026-04-27 07:51 -35.16004 150.27533 2411 ft 130 kts 47°
2026-04-27 07:52 -35.15374 150.28331 2342 ft 130 kts 49°
2026-04-27 07:52 -35.14769 150.29093 2315 ft 118 kts 47°
2026-04-27 07:52 -35.14189 150.29811 2207 ft 120 kts 47°
2026-04-27 07:52 -35.13604 150.30544 2174 ft 121 kts 47°
2026-04-27 07:53 -35.13018 150.31272 2080 ft 119 kts 47°
2026-04-27 07:53 -35.12436 150.31994 1970 ft 120 kts 47°
2026-04-27 07:53 -35.11849 150.32725 1938 ft 117 kts 46°
2026-04-27 07:53 -35.11288 150.33413 1833 ft 112 kts 46°
2026-04-27 07:54 -35.10769 150.34053 1790 ft 99 kts 47°
2026-04-27 07:54 -35.10340 150.34587 1845 ft 82 kts 49°
2026-04-27 07:54 -35.09972 150.35052 1810 ft 69 kts 48°
2026-04-27 07:54 -35.09705 150.35390 1802 ft 39 kts 49°
2026-04-27 07:55 -35.09554 150.35581 1615 ft 41 kts 46°
2026-04-27 07:55 -35.09325 150.35836 1667 ft 32 kts 39°
2026-04-27 07:55 -35.09232 150.35906 1982 ft 29 kts 46°
2026-04-27 07:55 -35.08912 150.36295 1947 ft 88 kts 51°
2026-04-27 07:56 -35.08482 150.36868 2090 ft 95 kts 47°
2026-04-27 07:56 -35.08011 150.37453 1856 ft 98 kts 45°
2026-04-27 07:56 -35.07519 150.38058 1635 ft 110 kts 46°
2026-04-27 07:56 -35.06937 150.38801 1538 ft 125 kts 46°
2026-04-27 07:57 -35.06540 150.39296 1460 ft 122 kts 46°
2026-04-27 07:57 -35.05946 150.40032 1324 ft 122 kts 46°
2026-04-27 07:57 -35.05350 150.40772 1267 ft 122 kts 46°
2026-04-27 07:57 -35.04753 150.41521 1229 ft 123 kts 46°
2026-04-27 07:58 -35.04156 150.42261 1114 ft 122 kts 45°
2026-04-27 07:58 -35.03588 150.42972 1179 ft 86 kts 47°
2026-04-27 07:58 -35.03320 150.43303 1204 ft 86 kts 47°
2026-04-27 07:58 -35.02826 150.43926 1144 ft 117 kts 46°
2026-04-27 07:59 -35.02230 150.44681 1145 ft 122 kts 45°
2026-04-27 07:59 -35.01032 150.46160 1105 ft 123 kts 46°
2026-04-27 07:59 -35.00453 150.46878 1131 ft 117 kts 46°
2026-04-27 08:00 -34.99881 150.47587 1096 ft 117 kts 45°
2026-04-27 08:00 -34.99313 150.48277 999 ft 114 kts 46°
2026-04-27 08:00 -34.98766 150.48948 1021 ft 109 kts 46°
2026-04-27 08:00 -34.98245 150.49588 1014 ft 104 kts 46°
2026-04-27 08:01 -34.97660 150.50077 1057 ft 103 kts 21°
2026-04-27 08:01 -34.96960 150.50295 1277 ft 104 kts 15°
2026-04-27 08:01 -34.96244 150.50496 1271 ft 111 kts 14°
2026-04-27 08:01 -34.95516 150.50725 1111 ft 99 kts 18°
2026-04-27 08:02 -34.94919 150.50933 946 ft 81 kts 32°
2026-04-27 08:02 -34.94715 150.51419 781 ft 61 kts 90°
2026-04-27 08:02 -34.94752 150.51928 702 ft 65 kts 96°
2026-04-27 08:02 -34.94803 150.52506 689 ft 70 kts 91°
2026-04-27 08:03 -34.94839 150.53072 683 ft 64 kts 95°
2026-04-27 08:03 -34.94877 150.53575 646 ft 52 kts 89°
2026-04-27 08:03 -34.94887 150.53948 553 ft 37 kts 86°
2026-04-27 08:03 -34.94892 150.54222 475 ft 29 kts 86°
2026-04-27 08:04 -34.94909 150.54419 394 ft 17 kts 95°
2026-04-27 08:04 -34.94903 150.54477 364 ft 2 kts 92°
2026-04-27 08:04 -34.94897 150.54482 366 ft 4 kts 25°
2026-04-27 08:04 -34.94844 150.54531 367 ft 13 kts 16°
2026-04-27 08:05 -34.94776 150.54589 366 ft 8 kts 29°
2026-04-27 08:05 -34.94742 150.54624 365 ft 6 kts 30°
2026-04-27 08:05 -34.94709 150.54662 360 ft 4 kts 44°
2026-04-27 08:05 -34.94692 150.54695 362 ft 4 kts 61°
2026-04-27 08:06 -34.94681 150.54730 358 ft 3 kts 62°
2026-04-27 08:06 -34.94664 150.54748 360 ft 4 kts 342°
2026-04-27 08:06 -34.94647 150.54740 355 ft 2 kts 337°
2026-04-27 08:06 -34.94642 150.54737 356 ft 1 kts 337°
2026-04-27 08:07 -34.94640 150.54735 352 ft 0 kts 336°